sat.trackr.live / text

‹ back to catalog

JILIN GAOFEN OBJECT B

NORAD 68692 · 2026-080B

PAYLOAD ACTIVE UNKNOWN

§ Identity

Operator
Country
PRC
Launch date
2026-04-14
Launch site
JSC
Launch vehicle
Mass (kg)
RCS (m²)

External: N2YO · Heavens-Above · Gunter

§ Orbital elements

Epoch: 2026-05-11T20:34:12.137952Z

Period
95.39 min
Inclination
97.6597°
Eccentricity
0.0015746
Mean motion
15.09523009 rev/d
Perigee alt
526.8 km
Apogee alt
548.5 km
Semi-major
6,915.8 km
B*
1.2811e-4
RAAN
207.4737°
Arg perigee
180.0003°
Mean anomaly
180.1228°
Rev number
418

§ Raw data

JILIN GAOFEN OBJECT B1 68692U 26080B   26131.85708493  .00001994  00000+0  12811-3 0  99922 68692  97.6597 207.4737 0015746 180.0003 180.1228 15.09523009  4180

JSON: /api/v1/satellites/68692 · /tle

For live sub-satellite position, see the globe view (requires WebGL).

§ Visibility from observer

Set your observer location to see the next 7 days of passes ≥ 10°. The values pass through the URL so the page stays shareable.

No JS? Fill the form by hand. The geolocation button needs JavaScript.